Time,TemperatureF,DewpointF,PressureIn,WindDirection,WindDirectionDegrees,WindSpeedMPH,WindSpeedGustMPH,Humidity,HourlyPrecipIn,Conditions,Clouds,dailyrainin,SoftwareType,DateUTC
2013-09-17 00:14:00,51.0,47.0,30.30,NE,39,1.0,4.0,87,0.00,,,0.00,,2013-09-17 04:14:00,
2013-09-17 00:24:00,51.0,48.0,30.31,NE,46,2.0,5.0,88,0.00,,,0.00,,2013-09-17 04:24:00,
2013-09-17 00:44:00,51.0,48.0,30.31,NE,53,3.0,5.0,88,0.00,,,0.00,,2013-09-17 04:44:00,
2013-09-17 00:54:00,51.0,48.0,30.31,NE,51,2.0,5.0,88,0.00,,,0.00,,2013-09-17 04:54:00,
2013-09-17 01:12:00,50.0,47.0,30.31,ENE,68,2.0,4.0,89,0.00,,,0.00,,2013-09-17 05:12:00,
2013-09-17 01:23:00,50.0,47.0,30.32,ENE,75,1.0,3.0,89,0.00,,,0.00,,2013-09-17 05:23:00,
2013-09-17 01:42:00,49.0,46.0,30.32,ENE,64,1.0,3.0,90,0.00,,,0.00,,2013-09-17 05:42:00,
2013-09-17 01:52:00,49.0,46.0,30.32,ENE,67,2.0,4.0,91,0.00,,,0.00,,2013-09-17 05:52:00,
2013-09-17 02:12:00,49.0,47.0,30.32,East,96,2.0,4.0,92,0.00,,,0.00,,2013-09-17 06:12:00,
2013-09-17 02:22:00,49.0,47.0,30.33,ENE,75,2.0,5.0,92,0.00,,,0.00,,2013-09-17 06:22:00,
2013-09-17 02:42:00,49.0,47.0,30.33,ENE,58,2.0,5.0,92,0.00,,,0.00,,2013-09-17 06:42:00,
2013-09-17 02:52:00,48.0,46.0,30.33,NE,56,2.0,4.0,92,0.00,,,0.00,,2013-09-17 06:52:00,
2013-09-17 03:11:00,48.0,46.0,30.33,ENE,59,0.0,4.0,92,0.00,,,0.00,,2013-09-17 07:11:00,
2013-09-17 03:23:00,47.0,45.0,30.34,NNE,16,0.0,2.0,93,0.00,,,0.00,,2013-09-17 07:23:00,
2013-09-17 03:42:00,47.0,45.0,30.34,NNE,16,0.0,0.0,93,0.00,,,0.00,,2013-09-17 07:42:00,
2013-09-17 03:52:00,46.0,44.0,30.34,NNE,16,0.0,1.0,94,0.00,,,0.00,,2013-09-17 07:52:00,
2013-09-17 04:12:00,46.0,45.0,30.34,NNE,16,0.0,1.0,95,0.00,,,0.00,,2013-09-17 08:12:00,
2013-09-17 04:22:00,46.0,45.0,30.34,NE,36,0.0,1.0,96,0.00,,,0.00,,2013-09-17 08:22:00,
2013-09-17 04:42:00,46.0,45.0,30.34,NNE,19,0.0,1.0,96,0.00,,,0.00,,2013-09-17 08:42:00,
2013-09-17 04:52:00,46.0,45.0,30.34,NE,53,0.0,1.0,96,0.00,,,0.00,,2013-09-17 08:52:00,
2013-09-17 05:12:00,46.0,45.0,30.34,NE,53,0.0,1.0,96,0.00,,,0.00,,2013-09-17 09:12:00,
2013-09-17 05:22:00,45.0,44.0,30.34,NE,53,0.0,2.0,96,0.00,,,0.00,,2013-09-17 09:22:00,
2013-09-17 05:42:00,45.0,44.0,30.34,NE,51,0.0,0.0,96,0.00,,,0.00,,2013-09-17 09:42:00,
2013-09-17 05:53:00,45.0,44.0,30.34,NE,51,0.0,0.0,96,0.00,,,0.00,,2013-09-17 09:53:00,
2013-09-17 06:12:00,44.0,43.0,30.34,NE,49,0.0,0.0,96,0.00,,,0.00,,2013-09-17 10:12:00,
2013-09-17 06:23:00,45.0,44.0,30.33,NE,49,0.0,2.0,97,0.00,,,0.00,,2013-09-17 10:23:00,
2013-09-17 06:42:00,44.0,43.0,30.34,ENE,60,0.0,2.0,97,0.00,,,0.00,,2013-09-17 10:42:00,
2013-09-17 06:53:00,44.0,43.0,30.34,NE,51,0.0,2.0,97,0.00,,,0.00,,2013-09-17 10:53:00,
2013-09-17 07:11:00,44.0,43.0,30.34,NE,47,0.0,1.0,97,0.00,,,0.00,,2013-09-17 11:11:00,
2013-09-17 07:22:00,44.0,43.0,30.34,NE,50,0.0,2.0,97,0.00,,,0.00,,2013-09-17 11:22:00,
2013-09-17 07:52:00,43.0,42.0,30.34,NE,46,0.0,3.0,97,0.01,,,0.01,,2013-09-17 11:52:00,
2013-09-17 08:12:00,43.0,42.0,30.34,NE,46,0.0,1.0,97,0.01,,,0.01,,2013-09-17 12:12:00,
2013-09-17 08:22:00,44.0,43.0,30.35,NE,51,0.0,2.0,97,0.01,,,0.01,,2013-09-17 12:22:00,
2013-09-17 08:42:00,45.0,44.0,30.34,NNE,30,2.0,4.0,97,0.01,,,0.01,,2013-09-17 12:42:00,
2013-09-17 08:52:00,45.0,44.0,30.35,ENE,65,1.0,5.0,97,0.00,,,0.01,,2013-09-17 12:52:00,
2013-09-17 09:11:00,46.0,45.0,30.35,ENE,68,1.0,4.0,97,0.00,,,0.01,,2013-09-17 13:11:00,
2013-09-17 09:22:00,48.0,47.0,30.35,ENE,57,2.0,6.0,96,0.00,,,0.01,,2013-09-17 13:22:00,
2013-09-17 09:42:00,49.0,48.0,30.35,NNE,32,3.0,9.0,95,0.00,,,0.01,,2013-09-17 13:42:00,
2013-09-17 09:52:00,51.0,49.0,30.35,ESE,103,4.0,6.0,93,0.00,,,0.01,,2013-09-17 13:52:00,
2013-09-17 10:11:00,53.0,50.0,30.35,ENE,65,4.0,7.0,91,0.00,,,0.01,,2013-09-17 14:11:00,
2013-09-17 10:22:00,54.0,51.0,30.35,NE,54,5.0,8.0,89,0.00,,,0.01,,2013-09-17 14:22:00,
2013-09-17 10:52:00,57.0,52.0,30.35,ENE,65,5.0,8.0,83,0.00,,,0.01,,2013-09-17 14:52:00,
2013-09-17 11:11:00,58.0,52.0,30.35,ENE,73,5.0,9.0,80,0.00,,,0.01,,2013-09-17 15:11:00,
2013-09-17 11:22:00,59.0,51.0,30.35,ENE,74,5.0,10.0,75,0.00,,,0.01,,2013-09-17 15:22:00,
2013-09-17 11:34:00,59.0,51.0,30.35,ENE,74,5.0,10.0,75,0.00,,,0.01,,2013-09-17 15:34:00,
2013-09-17 11:44:00,59.0,51.0,30.35,ENE,74,5.0,10.0,75,0.00,,,0.01,,2013-09-17 15:44:00,
2013-09-17 11:53:00,61.0,52.0,30.35,ESE,109,3.0,9.0,71,0.00,,,0.01,,2013-09-17 15:53:00,
2013-09-17 12:13:00,62.0,51.0,30.34,SE,126,4.0,8.0,66,0.00,,,0.01,,2013-09-17 16:13:00,
2013-09-17 12:23:00,63.0,50.0,30.34,NE,44,6.0,8.0,63,0.00,,,0.01,,2013-09-17 16:23:00,
2013-09-17 12:54:00,64.0,50.0,30.32,ENE,74,5.0,9.0,60,0.00,,,0.01,,2013-09-17 16:54:00,
2013-09-17 13:12:00,64.0,49.0,30.32,ENE,78,3.0,10.0,59,0.00,,,0.01,,2013-09-17 17:12:00,
2013-09-17 13:24:00,65.0,49.0,30.31,SE,140,4.0,12.0,56,0.00,,,0.01,,2013-09-17 17:24:00,
2013-09-17 13:43:00,66.0,50.0,30.30,SE,131,5.0,8.0,56,0.00,,,0.01,,2013-09-17 17:43:00,
2013-09-17 13:53:00,67.0,50.0,30.30,SE,134,3.0,11.0,55,0.00,,,0.01,,2013-09-17 17:53:00,
2013-09-17 14:12:00,67.0,48.0,30.29,East,85,5.0,8.0,50,0.00,,,0.01,,2013-09-17 18:12:00,
2013-09-17 14:22:00,68.0,50.0,30.28,SE,135,4.0,7.0,52,0.00,,,0.01,,2013-09-17 18:22:00,
2013-09-17 14:42:00,70.0,50.0,30.28,SE,132,3.0,10.0,49,0.00,,,0.01,,2013-09-17 18:42:00,
2013-09-17 14:52:00,69.0,48.0,30.27,ENE,71,4.0,9.0,48,0.00,,,0.01,,2013-09-17 18:52:00,
2013-09-17 15:12:00,68.0,46.0,30.26,NE,51,6.0,11.0,46,0.00,,,0.01,,2013-09-17 19:12:00,
2013-09-17 15:22:00,70.0,48.0,30.26,SE,132,3.0,7.0,45,0.00,,,0.01,,2013-09-17 19:22:00,
2013-09-17 15:52:00,70.0,45.0,30.24,ENE,63,8.0,12.0,41,0.00,,,0.01,,2013-09-17 19:52:00,
2013-09-17 16:11:00,71.0,46.0,30.23,ENE,73,8.0,11.0,41,0.00,,,0.01,,2013-09-17 20:11:00,
2013-09-17 16:22:00,70.0,46.0,30.23,ESE,105,0.0,8.0,43,0.00,,,0.01,,2013-09-17 20:22:00,
2013-09-17 16:52:00,71.0,45.0,30.22,East,101,4.0,7.0,40,0.00,,,0.01,,2013-09-17 20:52:00,
2013-09-17 17:12:00,72.0,46.0,30.21,SE,127,6.0,12.0,39,0.00,,,0.01,,2013-09-17 21:12:00,
2013-09-17 17:22:00,72.0,46.0,30.21,ESE,117,2.0,7.0,40,0.00,,,0.01,,2013-09-17 21:22:00,
2013-09-17 17:54:00,70.0,45.0,30.20,ENE,70,6.0,9.0,41,0.00,,,0.01,,2013-09-17 21:54:00,
2013-09-17 18:13:00,70.0,45.0,30.20,East,86,5.0,9.0,41,0.00,,,0.01,,2013-09-17 22:13:00,
2013-09-17 18:24:00,69.0,45.0,30.19,ENE,71,5.0,6.0,42,0.00,,,0.01,,2013-09-17 22:24:00,
2013-09-17 18:53:00,68.0,46.0,30.19,ENE,64,4.0,6.0,46,0.00,,,0.01,,2013-09-17 22:53:00,
2013-09-17 19:12:00,67.0,46.0,30.18,ENE,71,3.0,6.0,47,0.00,,,0.01,,2013-09-17 23:12:00,
2013-09-17 19:22:00,66.0,46.0,30.18,NE,53,3.0,4.0,49,0.00,,,0.01,,2013-09-17 23:22:00,
2013-09-17 19:52:00,65.0,46.0,30.17,ENE,75,1.0,3.0,51,0.00,,,0.01,,2013-09-17 23:52:00,
2013-09-17 20:11:00,64.0,47.0,30.17,East,89,1.0,4.0,53,0.00,,,0.01,,2013-09-18 00:11:00,
2013-09-17 20:22:00,63.0,47.0,30.18,East,89,0.0,1.0,55,0.00,,,0.01,,2013-09-18 00:22:00,
2013-09-17 20:42:00,62.0,47.0,30.17,NE,41,1.0,2.0,59,0.00,,,0.01,,2013-09-18 00:42:00,
2013-09-17 20:52:00,61.0,47.0,30.18,NE,44,4.0,7.0,61,0.00,,,0.01,,2013-09-18 00:52:00,
2013-09-17 21:11:00,60.0,49.0,30.18,ENE,58,4.0,6.0,66,0.00,,,0.01,,2013-09-18 01:11:00,
2013-09-17 21:22:00,60.0,49.0,30.18,ENE,59,3.0,7.0,68,0.00,,,0.01,,2013-09-18 01:22:00,
2013-09-17 21:42:00,59.0,49.0,30.18,ENE,58,3.0,6.0,70,0.00,,,0.01,,2013-09-18 01:42:00,
2013-09-17 21:53:00,59.0,50.0,30.18,ENE,63,3.0,5.0,72,0.00,,,0.01,,2013-09-18 01:53:00,
2013-09-17 22:11:00,58.0,49.0,30.18,ENE,71,4.0,5.0,73,0.00,,,0.01,,2013-09-18 02:11:00,
2013-09-17 22:22:00,57.0,49.0,30.18,ENE,64,2.0,4.0,75,0.00,,,0.01,,2013-09-18 02:22:00,
2013-09-17 22:43:00,57.0,50.0,30.18,ENE,58,2.0,4.0,77,0.00,,,0.01,,2013-09-18 02:43:00,
2013-09-17 22:52:00,57.0,50.0,30.18,ENE,75,2.0,4.0,78,0.00,,,0.01,,2013-09-18 02:52:00,
2013-09-17 23:12:00,56.0,50.0,30.18,NE,56,2.0,5.0,79,0.00,,,0.01,,2013-09-18 03:12:00,
2013-09-17 23:23:00,56.0,50.0,30.18,NE,53,2.0,4.0,80,0.00,,,0.01,,2013-09-18 03:23:00,
2013-09-17 23:44:00,55.0,49.0,30.18,ENE,64,1.0,3.0,81,0.00,,,0.01,,2013-09-18 03:44:00,
2013-09-17 23:55:00,55.0,50.0,30.18,ENE,66,0.0,3.0,82,0.00,,,0.01,,2013-09-18 03:55:00,